P/2008 QP20 ( LINEAR-Hill )

Japanese version
Home page
Total 6,336 html files since Dec. 4, 1995
Updated on November 9, 2008

---------------------------------------------------------------------

* Profile

Discovery Date August 25 and September 23, 2008
Magnitude 20.7 mag, 17.7 mag
Discoverer Lincoln Laboratory Near-Earth Asteroid Research project, R. E. Hill (Catalina Sky Survey)

* Pictures

* Orbital Elements

Epoch 2008 Oct. 21.0 TT = JDT 2454760.5
T 2008 Nov. 2.70576 TT                                  MPC
q   1.7230870            (2000.0)            P               Q
n   0.15117196     Peri.   72.04666     +0.79161686     -0.60613983
a   3.4899716      Node   325.14845     +0.49708150     +0.71219701
e   0.5062748      Incl.    7.74926     +0.35532059     +0.35407617
P   6.52

* Finding Charts

* Magnitudes Graph

        m1 = 11.3 + 5 log d + 25 log r(t - 30)

---------------------------------------------------------------------

The orbital elements are published on M.P.E.C. 2008-U20.
The charts are made with StellaNavigator Ver.8 (AstroArts).
The magnitudes graphs are made with Comet for Windows.

---------------------------------------------------------------------

Copyright(C) 1995-2008 Seiichi Yoshida (comet@aerith.net). All rights reserved.